Terug naar catalogus

STARLINK-37389

ActiefCommunicatieSSO
NORAD 68778·PAYLOAD·🇺🇸 United States

Gelanceerd Apr 19, 2026 vanaf Vandenberg Space Force Base

Loading…

Volgende Passages (komende 24 uur)

TLE

VersSource: CelesTrak SupGP

Epoch: Sep 15, 2026, 04:27 UTC

1 68778C 26086N   26258.18590278 -.00053520  00000+0 -16615-2 0  2586
2 68778  97.2840 293.6843 0001474  92.8693 142.6901 15.33464504    15

Volg STARLINK-37389 in realtime met AllMySat

Download on the App Store